EW1979 Weather Reports


Display with metric or nautical units.
time (UTC)temp
F
wind
direction
speed
MPH
gust
MPH
rain 1hr
in
rain 24hr
in
rain mn
in
humidity
%
barometer
mb
20260510044505 75 178 0.0 0.0 0.00 0.00 0.01 73 1006.9
20260510040005 75 178 0.0 0.0 0.00 0.00 0.01 72 1007.0
20260510034559 75 178 0.0 0.0 0.00 0.00 0.01 74 1007.0
20260510033002 74 178 0.0 0.0 0.00 0.00 0.01 77 1007.0
20260510031505 75 178 0.0 0.0 0.00 0.00 0.01 77 1006.9
20260510030002 75 178 0.0 0.0 0.00 0.00 0.01 77 1007.1
20260510024557 75 178 0.0 0.0 0.00 0.00 0.01 76 1006.8
20260510023003 76 178 0.0 0.0 0.00 0.00 0.01 74 1006.5
20260510021603 77 178 0.0 0.0 0.00 0.00 0.01 72 1006.2
20260510020104 78 178 0.0 0.0 0.00 0.00 0.01 70 1006.0
20260510014502 80 178 0.0 0.0 0.00 0.00 0.01 65 1005.7
20260510011503 82 178 0.0 0.0 0.00 0.00 0.01 61 1005.1
20260510004554 83 178 0.0 0.0 0.00 0.00 0.01 59 1004.4
20260510001505 85 192 0.0 0.0 0.00 0.00 0.01 55 1004.2
20260509234617 86 194 0.0 0.0 0.00 0.00 0.01 49 1004.2
20260509233006 87 194 0.0 0.0 0.00 0.00 0.01 51 1004.1
20260509230016 86 195 0.0 0.0 0.00 0.00 0.01 50 1004.0
20260509224503 87 195 0.0 0.0 0.00 0.00 0.01 48 1004.2
20260509223010 87 195 0.0 0.0 0.00 0.00 0.01 49 1004.0
20260509221515 87 195 0.0 0.0 0.00 0.00 0.01 52 1004.2
20260509220002 85 195 0.0 0.0 0.00 0.00 0.01 52 1004.2
20260509214533 87 195 0.0 0.0 0.00 0.00 0.01 49 1004.3
20260509213103 87 206 0.0 0.0 0.00 0.00 0.01 50 1004.3
20260509211508 86 206 0.0 0.0 0.00 0.00 0.01 48 1004.6
20260509210016 87 207 0.0 0.0 0.00 0.00 0.01 49 1004.5
20260509204531 87 206 0.0 0.0 0.00 0.00 0.01 49 1004.7
20260509203004 86 200 0.0 0.0 0.00 0.00 0.01 54 1005.1
20260509201504 86 211 0.0 0.0 0.00 0.00 0.01 57 1005.5
20260509200111 85 222 0.0 0.0 0.00 0.00 0.01 55 1005.8
20260509194506 86 222 0.0 0.0 0.00 0.00 0.01 55 1005.8
20260509193117 85 222 0.0 0.0 0.00 0.00 0.01 58 1006.1
20260509184502 83 182 0.0 0.0 0.00 0.00 0.01 65 1006.5
20260509183007 82 182 0.0 0.0 0.00 0.00 0.01 62 1006.9
20260509181605 82 181 0.0 0.0 0.00 0.00 0.01 68 1007.0
20260509180104 81 181 0.0 0.0 0.00 0.00 0.01 67 1007.1
20260509174524 81 181 0.0 0.0 0.00 0.00 0.01 68 1007.6
20260509173003 80 180 0.0 0.0 0.00 0.00 0.01 68 1007.6
20260509171627 79 180 0.0 0.0 0.00 0.00 0.01 73 1007.8
20260509170003 77 180 0.0 0.0 0.00 0.00 0.01 74 1008.0
20260509164520 77 180 0.0 0.0 0.00 0.00 0.01 74 1008.1
20260509163124 76 180 0.0 0.0 0.00 0.00 0.01 74 1008.3
20260509161502 77 180 0.0 0.0 0.00 0.00 0.01 71 1008.2
20260509160015 76 179 0.0 0.0 0.00 0.00 0.01 64 1008.2
20260509154519 74 152 0.0 0.0 0.00 0.00 0.01 100 1008.9
20260509151606 71 152 0.0 0.0 0.00 0.00 0.01 100 1009.0
20260509144507 70 136 0.0 0.0 0.00 0.00 0.01 100 1009.5
20260509143004 70 136 0.0 0.0 0.00 0.00 0.01 100 1009.4
20260509141603 70 136 0.0 0.0 0.00 0.00 0.01 100 1009.3
20260509140007 70 136 0.0 0.0 0.00 0.00 0.01 100 1009.0
20260509134513 70 136 0.0 0.0 0.00 0.00 0.01 100 1009.0
20260509133103 70 136 0.0 0.0 0.00 0.00 0.01 100 1009.0
20260509131508 69 136 0.0 0.0 0.00 0.00 0.01 100 1009.0
20260509130108 69 136 0.0 0.0 0.00 0.00 0.01 100 1009.0
20260509124513 69 136 0.0 0.0 0.00 0.00 0.01 100 1008.7
20260509123003 70 136 0.0 0.0 0.00 0.00 0.01 100 1008.4
20260509120108 69 136 0.0 0.0 0.00 0.00 0.01 100 1008.4
20260509114512 69 136 0.0 0.0 0.00 0.00 0.01 100 1008.7
20260509113003 69 140 0.0 0.0 0.00 0.00 0.01 100 1008.6
20260509110002 69 140 0.0 0.0 0.00 0.00 0.01 100 1007.9
20260509104517 69 140 0.0 0.0 0.00 0.00 0.01 100 1008.0
20260509103103 69 140 0.0 0.0 0.00 0.00 0.00 100 1007.8
20260509101503 69 140 0.0 0.0 0.00 0.00 0.00 100 1007.6
20260509094502 69 140 0.0 0.0 0.00 0.00 0.00 100 1007.2
20260509093103 69 140 0.0 0.0 0.00 0.00 0.00 100 1006.9
20260509091507 69 140 0.0 0.0 0.00 0.00 0.00 100 1007.1
20260509090108 70 140 0.0 0.0 0.00 0.00 0.00 100 1007.0
20260509084604 70 140 0.0 0.0 0.00 0.00 0.00 100 1007.0
20260509083007 70 140 0.0 0.0 0.00 0.00 0.00 100 1007.1
20260509081603 70 140 0.0 0.0 0.00 0.00 0.00 100 1007.5
20260509074510 70 140 0.0 0.0 0.00 0.00 0.00 100 1007.2
20260509073006 70 140 0.0 0.0 0.00 0.00 0.00 100 1007.0
20260509071622 70 140 0.0 0.0 0.00 0.00 0.00 100 1007.1
20260509070104 69 140 0.0 0.0 0.00 0.00 0.00 100 1007.0
20260509064608 70 140 0.0 0.0 0.00 0.00 0.00 100 1007.1
20260509063003 69 140 0.0 0.0 0.00 0.00 0.00 100 1007.5
20260509061503 69 140 0.0 0.0 0.00 0.00 0.00 1 1007.3
20260509054513 69 140 0.0 0.0 0.00 0.00 0.00 5 1007.7
20260509053107 69 140 0.0 0.0 0.00 0.00 0.00 7 1008.1
20260509051507 69 140 0.0 0.0 0.00 0.00 0.00 9 1008.1
20260509050006 69 139 0.0 0.0 0.00 0.00 0.00 11 1008.7